Location: Beauchamp
(49.0167°N, 2.2000°E)
Time: 05:44:45
(UTC+00:00)

Daily predictions for brighter satellites

Satellite Brightness Start Highest point End
(mag) Time Altitude Azimuth Time Altitude Azimuth Time Altitude Azimuth
Resurs 1-4 Rocket 4.3 00:03:03 10° NE 00:06:04 15° E 00:09:04 10° ESE
GP-B 3.5 00:02:59 10° N 00:07:20 54° W 00:09:14 31° SW
Cosmos 841 Rocket 4.4 00:06:13 25° SSE 00:08:23 35° ESE 00:13:03 10° NE
Cosmos 2263 4.1 00:03:56 10° NNW 00:09:39 88° WSW 00:13:07 25° SSE
NOSS 3-1 (C) 3.6 00:04:58 14° SW 00:09:44 68° NW 00:16:15 10° NE
Cosmos 1932 4.4 00:07:28 10° NW 00:13:42 76° SW 00:17:55 22° SSE
Cosmos 1606 4.4 00:11:53 10° NNE 00:15:12 27° ENE 00:17:30 16° ESE
Cosmos 1356 3.3 00:15:18 50° SSW 00:16:06 83° WNW 00:19:31 10° N
NOSS 8 (H) 4.0 00:17:54 57° SW 00:18:26 87° SE 00:21:24 10° NE
ALOS 2 4.2 00:17:01 19° WSW 00:18:33 22° W 00:22:00 10° NW
USA 290 4.4 00:18:17 15° ESE 00:18:42 16° ESE 00:20:43 10° ENE
Cosmos 1937 Rocket 3.5 00:14:11 10° NNW 00:19:33 88° ENE 00:22:43 25° SSE
NOSS 2-3 (E) 4.1 00:17:47 18° WSW 00:20:51 58° NW 00:25:51 10° NE
USA 215 3.3 00:14:32 10° NE 00:21:06 82° NNW 00:27:39 10° WSW
NOSS 3-1 (A) 3.3 00:18:40 22° SW 00:22:23 86° NW 00:28:53 10° NE
Cosmos 1898 Rocket 3.5 00:18:47 10° NNW 00:23:58 64° WSW 00:26:29 30° S
Cosmos 1242 Rocket 3.5 00:22:09 10° N 00:25:36 40° ENE 00:27:23 23° SE
Cosmos 1953 Rocket 3.5 00:25:22 34° SSW 00:27:14 80° W 00:31:41 10° N
DELTA 2 R/B (1) 4.3 00:28:13 29° S 00:28:43 30° S 00:33:28 10° ESE
Cosmos 1943 Rocket 3.4 00:25:52 10° NW 00:30:18 25° WSW 00:32:13 21° SW
Cosmos 921 Rocket 3.7 00:31:04 28° SSE 00:32:40 39° ESE 00:36:35 10° NE
Cosmos-2242 4.3 00:29:40 10° NNW 00:33:31 30° W 00:35:07 23° SW
Cosmos 2058 3.0 00:32:29 34° SSE 00:34:07 66° E 00:38:12 10° NNE
Cosmos 1892 3.5 00:33:34 29° SW 00:35:04 43° WNW 00:38:48 10° N
CZ-2D R/B 3.7 00:30:55 10° NE 00:35:08 24° E 00:38:34 13° SE
Cosmos 1408 3.1 00:35:06 33° SW 00:36:21 48° WNW 00:39:58 10° N
In-Cosmos 22 Rocket 4.4 00:34:44 25° SSW 00:37:52 61° WNW 00:43:15 10° N
CREW DRAGON DEMO-1 DEB 3.1 00:39:10 31° WNW 00:39:58 49° N 00:42:21 10° ENE
EO 1 Del DPAF 3.1 00:37:22 10° NNE 00:41:06 83° WNW 00:42:27 38° SSW
USA 307 3.3 00:41:14 35° S 00:42:26 45° SE 00:46:30 10° ENE
Cosmos 372 Rocket 4.0 00:39:46 10° NNW 00:45:03 85° ENE 00:48:45 20° SSE
FALCON 9 DEB 3.3 00:42:10 10° WNW 00:45:18 64° NNE 00:48:25 10° ESE
Cosmos 1842 Rocket 3.5 00:41:03 10° N 00:45:26 88° E 00:47:37 29° S
OE (NEXTSAT) 4.4 00:45:02 42° SW 00:45:44 51° S 00:49:06 10° E
Cosmos 468 Rocket 4.4 00:46:00 22° SW 00:49:14 55° WNW 00:54:25 10° NNE
Cosmos 1076 Rocket 4.1 00:47:59 25° SSE 00:50:07 47° E 00:54:12 10° NNE
Cosmos 1437 Rocket 2.9 00:48:10 10° NNW 00:51:57 54° W 00:53:14 35° SSW
Cosmos 1943 3.2 00:48:43 24° SW 00:52:11 79° WNW 00:57:53 10° NNE
Cosmos 1825 2.5 00:52:03 33° SW 00:53:29 55° WNW 00:57:11 10° N
SL-16 R/B 3.2 00:49:03 10° SE 00:55:02 54° ENE 01:01:02 10° N
Meteor 2-2 Rocket 4.5 00:49:29 10° NNW 00:55:28 64° W 00:59:05 24° S
USA 267 3.5 00:51:01 16° SSE 00:55:59 46° SW 01:02:14 10° WNW
FALCON 9 DEB 2.7 00:54:12 10° WNW 00:57:18 89° WSW 01:00:23 10° ESE
USA 308 3.0 00:56:46 31° SSW 00:58:32 56° SE 01:02:43 10° ENE
FALCON 9 DEB 3.7 00:55:22 10° WNW 00:58:17 36° SW 00:58:17 36° SW
Cosmos 1763 Rocket 4.2 00:55:46 19° SW 00:59:07 47° WNW 01:04:06 10° NNE
Cosmos 1633 3.1 00:59:42 28° SSE 01:01:11 49° E 01:04:37 10° NNE
Exosat Rocket 4.1 00:57:05 20° SW 01:01:20 61° WNW 01:06:25 10° NNE
Cosmos 1570 Rocket 4.1 00:59:36 26° S 01:02:32 67° ESE 01:07:44 10° NNE
Cosmos 2221 2.7 00:59:08 10° NNW 01:03:21 58° W 01:05:17 30° SSW
Cosmos 1603 4.0 01:00:22 21° SW 01:04:12 64° WNW 01:09:50 10° NNE
SL-4 R/B 2.2 01:00:35 10° WNW 01:04:23 63° N 01:07:55 10° E
Cosmos 1656 Rocket 4.3 00:59:08 10° NW 01:04:25 41° WSW 01:07:10 25° SSW
Helios 1B rocket 4.0 01:01:13 10° NE 01:04:42 26° E 01:07:17 15° SE
NOSS 2-2 (D) 3.4 01:04:34 34° S 01:05:37 48° SE 01:09:13 10° NE
CZ-4C R/B 4.1 01:04:06 10° SE 01:06:33 14° ESE 01:09:11 10° ENE
FALCON 9 DEB 2.8 01:05:13 10° WNW 01:08:21 89° NE 01:11:27 10° ESE
FALCON 9 DEB 2.7 01:05:34 10° WNW 01:08:41 80° SSW 01:11:46 10° ESE
Cosmos 2098 Rocket 3.2 01:10:38 26° SSW 01:13:24 69° W 01:17:27 10° N
USA 305 2.8 01:12:05 24° SW 01:14:34 75° SSE 01:18:50 10° ENE
Lacrosse 5 rocket 2.2 01:12:27 10° NW 01:15:54 44° NNE 01:19:25 10° E
Cosmos 405 Rocket 4.3 01:18:38 17° WSW 01:20:24 24° WNW 01:23:28 10° NNW
Cosmos 2208 Rocket 4.1 01:18:26 23° SSW 01:21:52 79° ESE 01:27:21 10° NNE
Meteor 2-15 Rocket 4.4 01:19:06 10° N 01:25:17 86° W 01:30:18 16° S
Meteor 2-15 4.5 01:19:16 10° NNW 01:25:22 70° W 01:29:51 19° S
SL-16 R/B 4.4 01:22:31 10° W 01:26:27 19° NW 01:30:24 10° N
Lacrosse 4 Rocket 1.6 01:23:32 10° NW 01:27:28 46° WSW 01:29:31 24° S
Helios 1A 3.5 01:27:13 25° SSW 01:29:10 41° W 01:33:11 10° NNW
Cosmos 1437 2.9 01:27:29 10° NNW 01:30:09 42° W 01:30:46 35° SW
Cosmos 540 Rocket 4.2 01:26:38 18° SW 01:30:10 45° WNW 01:35:07 10° NNE
Aureole 3 Rocket 3.4 01:26:28 10° NNW 01:30:34 63° W 01:34:29 19° S
ERBS 3.4 01:30:15 25° SSE 01:31:07 29° SE 01:33:58 10° ENE
Cosmos 2369 Rocket 3.9 01:28:45 10° WNW 01:32:16 17° W 01:34:13 14° WSW
CZ-4 R/B 4.2 01:30:10 10° N 01:34:44 53° WNW 01:37:46 20° SW
ATLAS 5 CENTAUR R/B 1.4 01:32:40 23° SW 01:35:08 85° NW 01:39:40 10° NE
CZ-3B R/B 3.1 01:28:18 10° WNW 01:36:19 54° N 01:39:09 10° E
USA 306 2.9 01:33:55 16° WSW 01:37:14 85° NNW 01:41:31 10° ENE
Cosmos 1271 Rocket 4.2 01:34:34 10° N 01:38:01 33° ENE 01:41:27 10° SE
Cosmos 1553 Rocket 4.2 01:33:32 10° N 01:39:51 70° ENE 01:46:00 10° SSE
BREEZE-M DEB (TANK) 4.4 01:35:07 10° WNW 01:40:51 70° SSW 02:03:59 10° SE
NOSS 2-2 (E) 3.5 01:41:36 19° WSW 01:43:54 57° NW 01:47:49 10° NE
ARGOS Delta rocket 4.2 01:39:27 10° N 01:44:58 75° WNW 01:48:59 19° SSW
Resurs 1-4 Rocket 2.1 01:41:15 10° NNE 01:46:37 87° W 01:50:39 18° SSW
Cosmos 2026 Rocket 4.1 01:42:46 18° SSW 01:47:37 78° W 01:54:02 10° N
Cosmos 841 Rocket 4.5 01:46:17 14° WSW 01:50:14 37° WNW 01:55:02 10° N
Cosmos 1606 4.0 01:47:37 10° NNW 01:50:49 25° W 01:52:28 19° SW
ADEOS II 2.7 01:46:58 10° NNE 01:52:07 52° E 01:56:54 12° S
USA 290 3.3 01:51:03 19° WSW 01:52:51 35° WNW 01:55:51 10° N
Cosmos 1151 Rocket 3.4 01:50:05 10° N 01:54:20 64° ENE 01:58:33 10° SSE
Cosmos 1782 2.9 01:53:23 10° N 01:57:26 78° E 02:01:22 10° SSE
NOSS 2-2 (C) 3.6 01:55:47 17° WSW 01:58:20 53° NW 02:02:09 10° NE
ADEOS Rocket 3.3 01:52:47 10° SSE 01:59:56 88° ENE 02:06:23 10° NNW
Cosmos 1242 Rocket 4.5 01:57:50 10° NW 02:00:05 16° W 02:01:20 14° WSW
IDEFIX/ARIANE 42P 3.9 01:56:12 10° NNE 02:00:59 35° E 02:05:44 10° SSE
Meteor 1-28 Rocket 3.9 01:58:55 10° SSE 02:02:38 56° ENE 02:06:23 10° N
USA 215 4.2 01:57:34 10° ENE 02:03:46 48° N 02:09:59 10° W
NOSS 3-2 (A) 4.2 01:57:42 10° NW 02:05:07 82° NE 02:13:37 10° SE
IRS-1D 4.1 02:01:31 10° NNE 02:06:32 53° E 02:11:25 10° S
CZ-4C R/B 4.4 02:08:13 10° SE 02:11:27 38° ENE 02:14:45 10° N
Cosmos 2151 3.6 02:10:38 16° SW 02:13:36 41° WNW 02:17:37 10° N
CREW DRAGON DEMO-1 DEB 3.3 02:11:27 10° WNW 02:13:48 47° N 02:16:10 10° E
DELTA 2 R/B (1) 4.4 02:09:40 10° WSW 02:14:19 28° SSW 02:18:57 10° SE
CZ-2D R/B 2.5 02:10:26 10° N 02:15:30 53° WNW 02:19:53 14° SW
Alouette 2 Rocket 3.3 02:12:00 10° NNW 02:15:36 81° WSW 02:19:59 10° S
NPP 3.8 02:10:21 10° N 02:15:42 65° WNW 02:20:23 14° SSW
Landsat 4 3.8 02:13:15 10° NNE 02:17:03 73° ESE 02:20:25 13° S
Cosmos 1766 Rocket 3.6 02:14:18 13° S 02:18:21 86° E 02:22:52 10° N
FALCON 9 DEB 3.8 02:18:06 10° W 02:20:50 27° SW 02:23:32 10° SSE
X-37B 2.7 02:22:08 12° S 02:22:08 12° S 02:22:45 10° S
AQUA 4.0 02:17:13 10° N 02:21:57 64° WNW 02:26:09 13° SSW
USA 307 3.4 02:18:10 10° W 02:22:22 58° NNW 02:26:35 10° ENE
Cosmos 2266 Rocket 4.3 02:18:12 10° S 02:24:13 67° E 02:30:13 10° NNE
DELTA 2 DEB (DPAF) 4.1 02:22:37 10° S 02:27:03 76° WSW 02:31:32 10° NNW
Cosmos 2082 Rocket 4.3 02:23:33 10° SE 02:27:28 20° E 02:31:24 10° NE
Cosmos 2292 Rocket 3.6 02:30:15 15° SW 02:32:22 34° WNW 02:35:18 10° N
FALCON 9 DEB 4.4 02:30:27 10° W 02:32:31 17° SW 02:34:34 10° S
CENTAUR R/B 3.3 02:26:50 10° NW 02:34:53 88° NE 02:43:49 10° SE
Genesis I 3.6 02:33:23 10° NW 02:37:27 74° NE 02:41:30 10° SE
USA 308 3.7 02:34:26 10° W 02:38:36 52° NNW 02:42:46 10° ENE
SL-16 R/B 3.4 02:33:42 11° SSW 02:38:55 31° W 02:44:19 10° NNW
Okean 3 Rocket 3.7 02:35:09 11° SSW 02:39:19 61° WNW 02:43:40 10° N
Helios 1B rocket 3.5 02:36:17 10° N 02:39:58 33° WNW 02:43:35 10° SW
BREEZE-M DEB (TANK) 3.1 02:38:28 10° W 02:41:01 81° SSW 02:49:03 10° ESE
Meteor 1-29 3.4 02:38:08 10° N 02:41:27 48° WNW 02:44:34 11° SW
Cosmos 2084 Rocket 3.8 02:39:06 11° SSW 02:42:48 49° SE 02:46:40 10° NE
Spot 1 4.5 02:38:11 10° SSE 02:43:12 85° ENE 02:47:59 10° NNW
FALCON 9 DEB 4.4 02:41:31 10° W 02:43:40 17° SW 02:45:49 10° S
ASTEX 1 3.4 02:38:45 10° S 02:43:41 81° W 02:48:38 10° N
Cosmos 1125 Rocket 4.4 02:39:16 10° NW 02:43:50 31° W 02:48:24 10° SSW
SL-4 R/B 1.8 02:40:21 10° WNW 02:43:52 46° SSW 02:47:12 10° SE
USA 238 DEB 3.9 02:37:53 10° NW 02:45:09 83° SW 02:52:44 10° SE
USA 238 3.9 02:38:00 10° NW 02:45:15 83° SW 02:52:51 10° SE
Cosmos 1656 3.7 02:39:36 10° NNW 02:45:16 64° WSW 02:50:52 10° SSE
SL-08 R/B 4.0 02:43:18 10° SSE 02:47:55 58° ENE 02:52:38 10° N
Cosmos 44 4.2 02:44:52 10° SSW 02:49:57 49° ESE 02:55:12 10° NE
CZ-4C R/B 2.2 02:48:49 10° SW 02:53:45 82° SE 02:59:48 10° NE
ARIANE 5 R/B 3.2 02:49:20 10° NNE 02:54:13 52° E 02:59:06 10° S
USA 305 3.9 02:50:37 10° W 02:54:43 46° N 02:58:51 10° ENE
Lacrosse 5 rocket 1.6 02:51:37 10° WNW 02:54:56 35° SW 02:58:20 10° SSE
Cosmos 1862 3.4 02:53:26 10° SSW 02:57:28 69° W 03:01:33 10° N
COSMOS 2406 3.6 02:54:14 10° SSW 02:59:48 62° ESE 03:05:25 10° NNE
Tianhe-1 3.0 02:59:02 10° SSW 03:01:10 17° SSE 03:03:19 10° SE
Cosmos 1812 3.3 02:58:26 10° NNW 03:02:03 39° W 03:05:38 10° SSW
CZ-2C R/B 3.9 03:02:18 10° NNE 03:06:48 34° E 03:11:08 10° SSE
Cosmos 1655 Rocket 4.3 03:01:21 10° SSW 03:07:26 55° WNW 03:13:36 10° N
